Hamilton, Ontario

4:41 PM EST on February 27, 2017 (GMT -0500)
Hamilton

Weather History for CYHM - October, 2012

Change the Weather History Date:

Monday, October 1, 2012

  Actual Average Record
Temperature  
Mean Temperature 54 °F -  
Max Temperature 65 °F 57 °F 80 °F (2002)
Min Temperature 42 °F 40 °F 33 °F (2003)
Degree Days  
Heating Degree Days 12    
Growing Degree Days 4 (Base 50)    
Moisture  
Dew Point 47 °F    
Average Humidity 76    
Maximum Humidity 100    
Minimum Humidity 43    
Precipitation  
Precipitation 0.00 in 0.09 in - ()
Sea Level Pressure  
Sea Level Pressure 29.91 in    
Wind  
Wind Speed 5 mph ()    
Max Wind Speed 12 mph    
Max Gust Speed -    
Visibility 15.0 miles    
Events      
Averages and records for this station are not official NWS values.
T = Trace of Precipitation, MM = Missing Value Source: Averaged Metar Reports

Daily Weather History Graph

Daily Weather History Graph

Search for Another Location

Airport or City:

Trip Planner

Search our weather history database for the weather conditions in past years. The results will help you decide how hot, cold, wet, or windy it might be!

Date:

Astronomy

Oct. 01, 2012 Rise Set
Actual Time 7:17 AM EDT 7:00 PM EDT
Civil Twilight 6:49 AM EDT 7:28 PM EDT
Nautical Twilight 6:16 AM EDT 8:01 PM EDT
Astronomical Twilight 5:42 AM EDT 8:34 PM EDT
Moon 7:31 PM EDT (10/1) 8:49 AM EDT (10/1)
Length of Visible Light 12h 39m
Length of Day
11h 42m
Full, 98% of the Moon is Illuminated
Oct 1
Full
Oct 8
Last Quarter
Oct 15
New
Oct 21
First Quarter
Oct 29
Full

Hourly Weather History & Observations

Time (EDT) Temp. Windchill Dew Point Humidity Pressure Visibility Wind Dir Wind Speed Gust Speed Precip Events Conditions
12:00 AM 51.8 °F - 42.8 °F 71% 29.91 in 15.0 mi West 3.5 mph - N/A   Overcast
1:00 AM 50.0 °F - 44.6 °F 82% 29.91 in 15.0 mi WSW 4.6 mph - N/A   Mostly Cloudy
2:00 AM 49 °F - 45 °F 81% 29.90 in 15 mi West 5.8 mph - -   Overcast
2:00 AM 50.0 °F - 44.6 °F 82% 29.90 in 15.0 mi West 5.8 mph - N/A   Overcast
3:00 AM 50.0 °F - 46.4 °F 87% 29.89 in 15.0 mi West 4.6 mph - N/A   Mostly Cloudy
4:00 AM 50.0 °F - 46.4 °F 87% 29.88 in 15.0 mi West 5.8 mph - N/A   Mostly Cloudy
5:00 AM 48.2 °F - 46.4 °F 93% 29.87 in 15.0 mi WSW 3.5 mph - N/A   Partly Cloudy
6:00 AM 46.4 °F 44.3 °F 46.4 °F 100% 29.88 in 15.0 mi West 4.6 mph - N/A   Partly Cloudy
7:00 AM 44.6 °F 41.4 °F 42.8 °F 93% 29.90 in 15.0 mi WSW 5.8 mph - N/A   Partly Cloudy
8:00 AM 46 °F - 46 °F 97% 29.92 in 15 mi West 9.2 mph - -   Scattered Clouds
8:00 AM 46.4 °F 41.5 °F 46.4 °F 100% 29.92 in 15.0 mi West 10.4 mph - N/A   Partly Cloudy
9:00 AM 51.8 °F - 48.2 °F 88% 29.93 in 15.0 mi West 10.4 mph - N/A   Partly Cloudy
10:00 AM 57.2 °F - 50.0 °F 77% 29.94 in 15.0 mi WNW 8.1 mph - N/A   Partly Cloudy
11:00 AM 60.8 °F - 50.0 °F 68% 29.93 in 15.0 mi West 11.5 mph - N/A   Scattered Clouds
12:00 PM 62.6 °F - 50.0 °F 63% 29.93 in 15.0 mi WNW 9.2 mph - N/A   Mostly Cloudy
1:00 PM 64.4 °F - 48.2 °F 56% 29.93 in 15.0 mi West 6.9 mph - N/A   Mostly Cloudy
2:00 PM 65 °F - 48 °F 43% 29.91 in 15 mi West 10.4 mph - -   Mostly Cloudy
2:00 PM 64.4 °F - 48.2 °F 56% 29.91 in 15.0 mi West 10.4 mph - N/A   Mostly Cloudy
3:00 PM 64.4 °F - 48.2 °F 56% 29.91 in 15.0 mi WNW 6.9 mph - N/A   Mostly Cloudy
4:00 PM 62.6 °F - 48.2 °F 59% 29.90 in 15.0 mi West 4.6 mph - N/A   Mostly Cloudy
5:00 PM 64.4 °F - 48.2 °F 56% 29.89 in - SW 5.8 mph - N/A   Mostly Cloudy
6:00 PM 62.6 °F - 48.2 °F 59% 29.89 in 15.0 mi ENE 2.3 mph - N/A   Mostly Cloudy
7:00 PM 59.0 °F - 50.0 °F 72% 29.91 in 15.0 mi SSW 3.5 mph - N/A   Mostly Cloudy
8:00 PM 56 °F - 48 °F 67% 29.93 in 15 mi South 5.8 mph - -   Scattered Clouds
8:00 PM 55.4 °F - 48.2 °F 77% 29.92 in 15.0 mi South 5.8 mph - N/A   Mostly Cloudy
9:00 PM 53.6 °F - 48.2 °F 82% 29.93 in 15.0 mi SSW 3.5 mph - N/A   Mostly Cloudy
10:00 PM 51.8 °F - 48.2 °F 88% 29.92 in 15.0 mi WNW 2.3 mph - N/A   Mostly Cloudy
11:00 PM 50.0 °F - 46.4 °F 87% 29.91 in 15.0 mi NW 3.5 mph - N/A   Scattered Clouds